Content
SEND FEEDBACK

Daily
Averages
Monthly
Summary
United States of America

LINCOLN, NORTH DAKOTA


Home > North America > United States > North Dakota
Elevation: 1660 feet     Latitude: 46 46N     Longitude: 100 45W

WEATHER
 
SELECT A DAY
Number of Records: 208,157;   Date Range: 1/1/95 - 11/21/14
 
SHARE

PRINT THIS DATA

[ ← Previous Day ]
WEATHER ALMANAC - JULY 30, 2014
[ Next Day → ]
[ °C ]   °F
Weather ElementAverageHighLow
Temperature69.9 °F82.9 °F (5:52 pm)54 °F (1:52 am)
Dewpoint49.3 °F57.9 °F (6:52 am)25 °F (6:52 am)
Humidity50 %90 % (5:52 am)32 % (4:52 pm)
Barometer30.14 in30.17 in (7:52 am)30.08 in (2:52 am)
Wind Speed4.1 mph9.2 mph (10:52 am)
Weather ElementAverage
Visibility9.9 mi
Wind DirectionENE (76.5 °)

Weather ElementTotal
Precipitation---
Cooling Degree Days3.5 (Base 65)
Growing Degree Days18.5 (Base 50)
Averaged from 23 records on July 30, 2014
WEATHER CONDITIONS BREAKOUT
WIND DIRECTION BREAKOUT
WEATHER BY HOUR - JULY 30, 2014
[ °C ]   °F
Local TimeTemperatureDewpointHumidityBarometerVisibilityWind DirectionWind SpeedGust SpeedPrecipitationEventsConditions
12:52 AM62.6 °F57.2 °F82 %30.17 in10.0 miNE (40°)3.5 mphClear
1:52 AM61.0 °F30.9 °F32 %30.16 in10.0 miCalmClear
2:52 AM57.9 °F30.9 °F36 %30.16 in10.0 miENE (60°)3.5 mphClear
3:52 AM57.0 °F30.0 °F36 %30.16 in10.0 miCalmClear
4:52 AM55.0 °F28.9 °F37 %30.16 in10.0 miEast (80°)3.5 mphClear
5:52 AM54.0 °F30.0 °F40 %30.16 in10.0 miENE (70°)3.5 mphClear
6:52 AM54.0 °F25.0 °F33 %30.17 in7.0 miCalmClear
7:52 AM60.1 °F57.0 °F90 %30.17 in10.0 miENE (60°)3.5 mphClear
8:52 AM64.0 °F55.9 °F75 %30.16 in10.0 miEast (100°)4.6 mphClear
9:52 AM70.0 °F57.0 °F63 %30.17 in10.0 miVariable3.5 mphClear
10:52 AM77.0 °F57.9 °F52 %30.15 in10.0 miVariable3.5 mphClear
11:52 AM80.6 °F55.4 °F42 %30.16 in10.0 miVariable3.5 mphPartly Cloudy
12:52 PM79.0 °F55.9 °F45 %30.14 in10.0 miNorth (360°)6.9 mphPartly Cloudy
1:52 PM81.0 °F55.0 °F41 %30.12 in10.0 miNorth (360°)4.6 mphScattered Clouds
2:52 PM82.0 °F55.9 °F41 %30.12 in10.0 miVariable6.9 mphMostly Cloudy
3:52 PM81.0 °F55.0 °F41 %30.12 in10.0 miSE (130°)3.5 mphMostly Cloudy
4:52 PM82.9 °F55.9 °F39 %30.11 in10.0 miESE (110°)9.2 mphMostly Cloudy
5:52 PM81.0 °F55.0 °F41 %30.09 in10.0 miENE (70°)5.8 mphOvercast
6:52 PM80.6 °F55.4 °F42 %30.10 in10.0 miESE (110°)5.8 mphScattered Clouds
7:52 PM79.0 °F55.9 °F45 %30.08 in10.0 miEast (90°)6.9 mphPartly Cloudy
8:52 PM73.9 °F57.9 °F57 %30.09 in10.0 miENE (60°)5.8 mphClear
9:52 PM71.1 °F57.0 °F61 %30.09 in10.0 miENE (60°)5.8 mphPartly Cloudy
11:52 PM64.0 °F57.9 °F80 %30.10 in10.0 miCalmMostly Cloudy
Hourly data recorded from KBIS, located miles away from Lincoln, North Dakota







STORIES FROM OUR PARTNERS